Location: Linz
(48.3300°N, 14.3000°E)
Time: 22:41:06
(UTC+01:00)

OTV 5 (USA 277) - Pass Details

Date: 15 November 2017
Orbit: 404 x 417 km, 43.0° (Epoch: 07 September)

Event Time Altitude Azimuth Distance (km) Brightness Sun altitude
Exits shadow 05:46:33 18° 237° (WSW) 1,065 ? -13.9°
Maximum altitude 05:48:17 29° 188° (S) 764 ? -13.6°
Drops below altitude 10° 05:51:12 10° 125° (SE) 1,455 ? -13.1°
Sets 05:53:26 0° 114° (ESE) 2,313 ? -12.8°
